Wetbulb
26.29 27.75 27.73 26.49 26.24 26.62 21.96 23.57 20.81 23.92 23.75 28.37 31.22 31.90 29.94 31.39 32.74 34.37 35.04 35.67 36.00 35.54 35.91 37.42 39.66 39.60 39.68 40.22 41.11 42.25 42.04 42.47 44.15 48.56 52.58 54.48 54.57 56.82 58.22 58.55 58.60 59.29 58.99 58.72
23.62 26.73 26.41 23.98 26.49 27.00 26.10 25.27 24.71 25.93 25.33 32.63 33.74 31.16 29.75 31.17 32.65 33.83 34.18 35.70 36.73 36.86 37.45 37.57 40.00 39.51 39.97 40.18 40.66 41.72 41.51 42.05 44.45 48.07 52.07 54.16 55.42 56.89 56.89 57.82 58.35 58.49 58.12 57.65
18.64 23.46 23.88 19.21 23.49 24.50 23.80 26.06 24.18 18.04 23.73 27.70 28.38 30.65 29.33 30.39 33.41 34.31 34.58 34.97 35.67 36.06 36.79 39.12 39.39 40.57 38.80 39.88 41.01 40.77 41.11 42.13 43.49 47.01 49.96 52.47 54.46 56.10 56.63 57.29 57.82 57.57 57.23 56.41
20.44 20.27 10.99 22.62 28.41 28.76 26.01 27.01 26.67 26.66 27.46 29.24 29.78 31.75 32.88 34.27 33.77 33.87 35.20 35.80 35.92 35.61 36.64 39.10 39.61 39.68 39.74 40.49 40.47 40.37 40.76 41.54 43.15 44.80 46.83 49.04 55.16 55.12 56.29 57.27 56.92 55.76 55.00 54.39
19.65 15.64 19.67 24.26 28.00 25.89 23.52 24.02 30.11 28.44 29.96 30.64 30.66 29.62 27.98 34.71 35.04 34.64 35.37 36.61 36.45 36.54 36.84 37.92 37.87 39.20 39.22 38.62 38.86 39.53 40.00 41.12 42.42 44.11 44.93 47.76 53.90 54.43 55.07 55.08 55.08 54.26 53.72 52.71
20.49 15.65 14.29 21.71 28.58 32.39 30.03 20.03 31.50 31.76 30.04 28.85 28.59 21.85 24.89 32.03 33.82 35.05 36.33 36.70 36.55 37.08 37.51 37.68 38.33 38.67 38.37 38.02 38.37 38.45 39.91 41.20 42.57 43.93 44.77 46.69 53.72 54.37 54.55 54.07 53.17 52.98 51.64 51.01
21.18 20.07 19.86 27.84 31.45 33.26 17.84 20.12 31.43 31.90 29.84 29.00 26.25 27.38 30.59 33.87 35.72 36.65 36.64 37.63 39.51 38.89 37.86 38.01 38.61 38.66 38.09 37.57 37.44 40.12 41.88 42.02 42.39 43.75 44.78 47.96 52.12 53.74 53.05 51.66 50.33 49.28 49.15 49.28
20.38 18.48 15.37 30.54 30.73 23.81 26.61 31.20 31.73 30.49 30.65 30.49 30.63 32.42 33.22 35.69 35.94 36.47 36.04 37.70 38.62 37.55 37.18 37.97 38.64 38.24 37.93 37.37 40.49 41.79 42.16 41.49 41.71 43.72 46.11 50.66 50.08 50.81 50.43 48.95 47.68 47.07 46.46 46.23
22.92 21.70 30.18 32.83 32.25 34.34 33.04 31.67 31.54 30.58 32.49 32.19 31.43 31.30 34.17 35.03 34.97 35.19 36.00 36.73 37.59 36.78 37.20 38.39 38.70 38.58 39.32 40.36 41.97 42.20 41.73 40.67 41.80 44.04 45.91 50.25 49.14 48.53 48.13 47.94 46.89 46.41 45.38 44.45
26.06 28.57 30.73 32.46 34.81 35.50 35.23 32.57 33.42 33.38 32.77 31.80 30.08 33.67 34.18 33.60 33.64 33.83 34.99 35.65 37.50 37.48 37.33 37.75 39.19 39.81 41.02 41.76 42.45 41.49 40.75 40.25 42.29 43.91 47.84 49.18 49.02 48.77 47.94 47.44 46.52 45.69 44.44 43.28
24.84 28.65 30.37 32.56 33.20 32.51 33.04 33.12 32.84 33.02 32.42 32.95 33.68 33.28 33.30 33.09 33.54 34.12 35.23 36.91 37.45 37.28 37.54 37.88 40.00 40.66 41.53 41.69 41.82 40.74 41.10 40.69 42.45 44.39 48.15 47.68 48.11 48.19 48.03 48.81 48.24 45.81 44.99 43.77
21.22 27.80 28.34 30.72 33.47 34.03 32.29 31.74 32.10 31.04 32.29 34.38 33.97 34.06 34.24 33.47 34.15 34.51 35.82 37.91 37.59 38.02 38.41 39.38 39.63 39.56 40.56 41.47 41.32 41.00 39.65 40.99 42.90 47.56 47.18 46.85 46.26 46.11 48.65 48.81 48.63 47.99 47.27 45.06
27.74 32.78 33.27 34.18 35.59 33.98 31.97 32.34 33.41 33.17 33.92 33.35 34.75 34.58 34.25 34.02 34.52 38.05 37.15 37.71 37.94 38.55 39.27 39.09 39.27 39.96 42.46 43.71 43.44 42.05 39.92 42.17 46.82 47.27 46.49 45.65 45.17 44.04 43.02 45.56 47.10 47.02 46.43 45.79
32.80 33.05 30.55 32.33 31.08 33.86 33.85 34.67 35.06 32.82 32.97 33.35 34.05 34.81 34.75 34.37 35.02 35.99 36.74 38.04 38.82 39.39 39.25 39.78 40.65 41.74 46.02 45.97 43.75 41.28 42.27 46.78 47.28 47.00 46.46 45.55 44.74 44.01 43.66 42.74 42.15 43.15 45.74 45.05
31.21 33.88 32.02 32.39 30.57 31.43 32.78 32.98 31.58 31.54 31.65 32.10 33.97 34.06 34.34 34.03 34.40 36.09 37.70 38.94 38.90 39.27 39.35 40.37 40.75 41.80 45.28 44.31 42.70 43.19 47.71 47.62 47.48 47.05 46.46 45.68 44.83 44.35 44.07 43.61 42.75 42.50 42.71 43.36
31.48 31.36 31.15 30.71 29.45 30.03 30.67 30.68 30.41 30.72 30.78 32.36 32.81 33.93 34.28 35.15 35.52 36.75 37.74 38.68 37.07 37.13 39.00 39.84 41.05 42.50 48.28 48.10 48.19 48.25 47.91 47.41 47.00 45.96 45.28 44.89 44.77 44.10 43.55 42.70 41.97 41.22 40.47 39.03
28.33 28.08 28.78 29.58 28.18 28.42 30.23 31.06 30.91 30.72 32.09 32.47 32.47 34.08 34.37 34.76 35.26 36.50 37.34 38.54 38.02 38.59 39.89 40.92 41.59 43.27 48.15 48.83 47.94 47.48 47.14 46.71 46.46 45.46 44.81 44.46 44.12 43.42 42.84 41.91 40.84 40.12 38.98 39.55
31.07 31.50 32.20 32.55 30.52 29.61 29.98 31.13 31.93 31.99 32.56 31.90 34.46 34.06 34.25 34.24 33.89 35.90 37.16 38.26 37.37 38.10 40.00 41.24 42.79 43.21 45.75 48.07 47.62 47.12 46.60 46.10 45.59 44.80 44.68 44.00 43.34 43.07 42.27 41.11 39.93 37.99 37.61 39.06
32.71 32.78 33.28 32.37 31.37 31.02 30.62 31.47 31.87 32.70 33.31 33.86 34.33 33.32 34.11 34.35 34.74 36.68 37.45 37.30 35.91 36.29 38.64 41.42 42.99 42.99 44.03 47.61 47.57 47.10 46.60 45.90 45.28 44.78 44.29 43.99 42.66 42.10 41.15 40.18 38.97 37.43 37.06 34.96
31.65 32.74 32.81 32.21 32.62 31.70 31.15 31.37 31.41 32.58 33.26 34.54 34.25 33.71 33.34 33.86 35.42 36.92 37.25 36.37 36.47 37.56 40.19 41.30 42.70 42.68 43.57 46.07 47.86 47.59 46.62 45.59 44.51 43.83 43.40 42.36 41.56 40.55 39.65 38.92 38.06 36.88 35.59 34.64
32.24 33.27 33.06 32.58 32.15 32.52 31.86 31.33 31.85 31.95 33.92 34.55 33.79 33.16 33.43 34.22 36.22 37.24 36.86 35.47 37.20 39.78 40.19 41.52 43.05 42.92 43.52 45.19 47.39 47.41 46.48 45.03 44.09 43.40 42.67 41.79 41.00 39.84 38.69 38.11 36.98 36.10 35.29 34.69
32.73 32.41 32.01 31.00 31.24 30.90 31.01 31.19 32.64 33.71 33.53 33.99 34.16 34.10 34.06 33.91 35.83 36.91 38.00 37.01 38.36 41.03 39.95 41.20 43.50 43.96 43.81 44.57 46.52 46.83 46.14 45.02 44.14 43.57 42.60 41.99 40.97 39.54 38.34 37.64 36.87 36.19 35.52 34.89
32.66 32.50 31.50 30.96 31.24 31.58 32.02 32.58 32.71 33.36 33.31 33.63 33.56 33.67 33.87 34.68 36.21 35.87 35.62 38.55 39.13 40.31 39.49 41.78 44.38 44.49 43.88 43.60 45.12 46.35 45.64 44.57 43.76 43.30 42.87 42.25 41.23 39.92 38.99 38.46 37.06 36.57 35.70 34.95
32.91 33.31 32.82 33.01 32.85 32.37 31.23 32.04 32.83 33.21 33.44 34.66 34.71 35.03 35.24 34.46 35.56 37.53 38.06 39.58 40.73 40.20 39.75 42.10 43.28 44.02 43.45 43.04 44.06 46.13 45.33 44.53 43.86 43.60 43.19 42.24 40.83 40.09 39.43 38.35 37.17 36.98 36.39 35.72
32.61 32.76 32.87 32.56 31.64 31.46 32.33 32.47 32.48 32.66 33.22 33.95 35.00 36.03 36.56 36.92 36.31 36.48 36.96 38.16 39.51 39.54 38.76 41.73 42.88 43.49 42.76 42.77 43.38 45.21 45.84 44.69 44.07 43.48 42.61 41.41 40.26 39.90 39.53 38.65 37.99 37.55 36.89 36.13
31.05 30.95 31.49 31.70 31.80 32.40 32.25 32.55 32.21 32.70 32.88 33.04 34.61 35.67 36.32 36.82 36.87 36.22 36.60 38.82 38.04 39.02 38.24 39.29 41.02 42.05 42.75 42.72 42.98 43.80 45.44 44.66 43.87 43.53 42.72 41.46 40.56 40.13 39.76 39.23 39.11 38.40 37.71 37.04
30.16 33.06 30.15 30.09 30.56 30.57 31.02 31.66 30.65 30.66 32.53 33.19 34.14 35.71 36.26 36.28 36.48 36.43 37.59 36.55 37.13 37.34 37.81 38.93 39.86 41.05 42.30 43.04 42.86 43.40 45.03 45.73 44.34 43.98 43.17 41.93 41.15 40.72 40.47 40.34 39.90 39.46 38.83 37.88
MSLP
1024.66 1024.30 1024.02 1023.42 1022.95 1022.10 1022.49 1021.91 1022.11 1019.67 1019.34 1017.91 1017.56 1016.98 1016.65 1016.23 1016.03 1016.16 1015.95 1015.63 1015.40 1015.32 1015.15 1014.95 1014.72 1014.54 1013.81 1013.34 1012.77 1012.11 1011.13 1010.38 1009.52 1008.62 1007.63 1006.28 1005.76 1005.33 1005.22 1005.67 1006.09 1006.33 1006.50 1007.08
1024.44 1024.17 1023.71 1022.61 1021.90 1021.13 1020.69 1020.15 1019.92 1019.26 1018.47 1017.32 1016.61 1016.24 1016.32 1016.33 1016.08 1016.08 1015.82 1015.40 1015.10 1014.96 1014.76 1014.67 1014.43 1014.19 1013.77 1013.11 1012.80 1012.17 1011.30 1010.71 1009.73 1008.66 1007.70 1007.02 1005.96 1005.18 1004.93 1005.32 1005.71 1006.05 1006.41 1007.23
1024.04 1023.83 1023.15 1021.99 1020.15 1019.73 1019.38 1018.95 1018.82 1018.60 1017.63 1016.87 1016.38 1016.25 1016.36 1016.29 1016.21 1015.97 1015.70 1015.37 1014.98 1014.71 1014.50 1014.24 1014.03 1013.77 1013.57 1013.03 1012.66 1012.20 1011.55 1010.80 1009.96 1008.81 1007.67 1006.72 1006.50 1005.31 1005.05 1005.16 1005.49 1006.15 1006.78 1007.52
1024.39 1023.95 1022.51 1020.18 1019.08 1018.60 1018.36 1017.93 1017.81 1017.56 1017.06 1016.60 1016.53 1016.62 1016.60 1016.37 1016.24 1016.01 1015.63 1015.25 1014.82 1014.38 1014.06 1013.91 1013.90 1013.87 1013.64 1013.04 1012.55 1012.34 1011.64 1010.94 1010.23 1009.19 1008.13 1006.96 1005.73 1004.65 1004.96 1005.50 1005.93 1006.63 1007.40 1008.04
1024.61 1023.72 1021.84 1019.68 1018.23 1017.83 1017.54 1017.47 1017.20 1017.14 1016.86 1016.75 1016.81 1017.06 1016.79 1016.27 1016.12 1015.90 1015.47 1015.01 1014.51 1013.98 1013.70 1013.83 1013.97 1013.76 1013.44 1013.16 1012.77 1012.14 1011.59 1010.89 1010.16 1009.59 1008.43 1007.35 1005.84 1005.01 1005.67 1005.94 1006.50 1007.36 1007.40 1008.78
1024.57 1023.57 1021.84 1019.23 1018.11 1017.63 1017.33 1017.26 1016.89 1016.74 1016.69 1016.77 1016.86 1017.34 1017.03 1016.40 1016.06 1015.58 1015.09 1014.67 1014.15 1013.58 1013.50 1013.81 1013.67 1013.43 1013.22 1012.82 1012.55 1012.06 1011.28 1010.72 1010.17 1009.28 1008.50 1007.33 1005.63 1005.54 1006.09 1006.40 1006.83 1007.80 1008.72 1009.84
1023.91 1022.80 1021.11 1019.26 1018.31 1017.55 1017.72 1017.78 1016.74 1016.60 1016.65 1016.69 1017.00 1017.05 1016.67 1016.36 1015.86 1015.35 1015.00 1014.67 1014.12 1013.88 1013.86 1013.65 1013.45 1013.23 1013.01 1012.58 1012.16 1011.62 1011.01 1010.59 1010.15 1009.46 1008.55 1007.28 1006.23 1006.25 1006.81 1007.54 1008.34 1008.87 1009.92 1010.89
1023.97 1022.46 1021.05 1019.11 1018.32 1018.34 1018.13 1017.18 1016.69 1016.51 1016.56 1016.59 1016.59 1016.54 1016.38 1016.14 1015.91 1015.49 1015.13 1014.74 1014.30 1014.03 1013.79 1013.37 1013.07 1012.85 1012.45 1012.06 1011.60 1011.22 1010.84 1010.40 1009.97 1009.30 1008.54 1007.37 1006.85 1007.03 1007.42 1008.32 1009.10 1009.96 1011.01 1012.26
1024.54 1022.38 1020.20 1019.64 1018.97 1017.97 1017.59 1017.09 1016.48 1016.31 1016.32 1016.43 1016.43 1016.42 1016.31 1016.17 1015.91 1015.50 1015.05 1014.62 1014.18 1013.88 1013.47 1012.89 1012.54 1012.23 1011.69 1011.14 1010.99 1010.96 1010.52 1010.11 1009.68 1009.06 1008.50 1007.80 1007.63 1007.84 1008.29 1009.05 1010.05 1010.92 1011.87 1013.08
1023.61 1021.10 1020.34 1019.28 1018.18 1017.41 1016.72 1016.40 1016.01 1015.92 1016.05 1016.18 1016.27 1016.29 1016.20 1016.08 1015.88 1015.46 1014.82 1014.34 1013.85 1013.42 1012.90 1012.28 1011.88 1011.62 1011.08 1010.50 1010.30 1010.31 1010.07 1009.83 1009.48 1009.05 1008.21 1007.91 1008.00 1008.20 1009.04 1009.68 1010.58 1011.48 1012.52 1013.68
1022.28 1020.86 1019.79 1018.51 1017.78 1017.17 1016.15 1015.72 1015.75 1015.78 1015.94 1016.06 1016.16 1016.15 1016.07 1015.96 1015.76 1015.18 1014.57 1014.02 1013.55 1013.07 1012.42 1011.59 1010.89 1010.37 1009.80 1009.41 1009.39 1009.40 1009.38 1009.31 1009.09 1008.81 1008.26 1008.36 1008.42 1008.89 1009.38 1010.07 1010.29 1011.64 1012.81 1013.61
1021.11 1020.03 1019.45 1018.34 1017.47 1016.99 1016.46 1016.17 1015.99 1015.96 1016.01 1016.08 1016.11 1016.07 1015.94 1015.90 1015.48 1014.97 1014.40 1013.90 1013.23 1012.58 1011.90 1010.80 1009.87 1008.81 1008.05 1007.72 1007.90 1008.31 1008.60 1008.79 1008.67 1008.31 1008.64 1008.70 1009.19 1010.04 1010.64 1010.95 1011.61 1012.35 1013.24 1013.83
1020.42 1019.41 1018.77 1017.81 1017.14 1016.81 1016.41 1016.27 1016.12 1016.08 1016.11 1016.23 1016.12 1016.12 1016.03 1015.82 1015.35 1014.90 1014.38 1013.77 1013.01 1012.29 1011.01 1009.77 1008.29 1006.82 1005.60 1005.34 1006.06 1006.93 1007.75 1007.97 1007.93 1008.20 1008.73 1009.26 1009.76 1010.45 1011.52 1012.73 1013.21 1013.66 1014.16 1015.21
1019.39 1019.04 1018.30 1017.26 1016.78 1016.30 1016.25 1016.29 1016.25 1016.23 1016.27 1016.31 1016.21 1016.22 1016.05 1015.81 1015.35 1014.90 1014.38 1013.74 1012.82 1011.82 1010.05 1008.97 1007.29 1005.74 1004.43 1004.16 1005.05 1006.46 1007.15 1007.35 1007.55 1008.28 1009.00 1009.59 1010.24 1011.03 1011.85 1012.97 1014.07 1015.23 1015.99 1016.43
1018.17 1017.80 1017.41 1016.72 1016.32 1016.14 1016.23 1016.42 1016.48 1016.52 1016.52 1016.46 1016.42 1016.36 1016.13 1015.91 1015.54 1014.97 1014.42 1013.73 1012.65 1011.36 1009.94 1008.58 1007.01 1005.85 1005.16 1005.27 1005.78 1006.42 1006.67 1007.16 1007.82 1008.69 1009.38 1010.04 1010.74 1011.74 1012.59 1013.60 1014.71 1015.86 1017.14 1018.09
1017.24 1016.94 1016.73 1016.56 1016.35 1016.42 1016.46 1016.56 1016.66 1016.65 1016.60 1016.52 1016.66 1016.44 1016.30 1016.08 1015.66 1015.04 1014.50 1013.92 1012.82 1011.57 1010.22 1009.00 1007.41 1006.37 1005.68 1005.78 1006.21 1006.59 1006.93 1007.67 1008.44 1009.16 1009.92 1010.65 1011.47 1012.28 1013.22 1014.27 1015.33 1016.57 1017.68 1018.69
1017.12 1016.74 1016.39 1016.32 1016.40 1016.50 1016.63 1016.57 1016.61 1016.69 1016.59 1016.66 1016.76 1016.56 1016.40 1016.24 1015.78 1015.22 1014.61 1014.21 1013.12 1012.32 1011.02 1009.94 1008.69 1007.40 1006.33 1006.41 1006.84 1007.27 1007.87 1008.38 1008.98 1009.77 1010.56 1011.27 1011.95 1012.86 1013.82 1014.80 1015.87 1017.05 1018.10 1019.09
1016.22 1015.85 1015.67 1015.65 1015.92 1016.31 1016.58 1016.47 1016.51 1016.57 1016.69 1016.82 1016.84 1016.75 1016.60 1016.48 1016.16 1015.62 1014.92 1014.37 1013.74 1012.75 1011.53 1010.20 1009.08 1008.21 1007.35 1007.23 1007.33 1007.78 1008.34 1008.99 1009.63 1010.27 1011.11 1011.91 1012.77 1013.58 1014.50 1015.40 1016.46 1017.50 1018.75 1019.66
1015.74 1015.45 1015.28 1015.38 1015.55 1015.94 1016.35 1016.48 1016.56 1016.72 1016.89 1016.96 1017.00 1017.09 1016.93 1016.76 1016.38 1015.99 1015.27 1014.61 1014.03 1013.14 1011.91 1010.98 1009.84 1008.95 1008.39 1008.06 1008.26 1008.60 1008.95 1009.45 1010.20 1011.00 1011.73 1012.57 1013.49 1014.38 1015.20 1016.09 1017.03 1018.10 1019.00 1020.05
1015.78 1015.53 1015.46 1015.50 1015.69 1016.05 1016.43 1016.66 1016.83 1017.05 1017.18 1017.19 1017.33 1017.38 1017.27 1017.10 1016.60 1016.30 1015.93 1015.34 1015.16 1014.73 1013.47 1012.06 1010.79 1009.86 1009.30 1008.97 1008.68 1008.96 1009.44 1010.03 1010.71 1011.52 1012.28 1013.20 1013.96 1014.97 1015.95 1016.79 1017.57 1018.47 1019.31 1020.22
1016.07 1015.98 1016.11 1016.19 1016.40 1016.55 1016.82 1016.99 1017.19 1017.48 1017.56 1017.42 1017.69 1017.76 1017.64 1017.50 1016.98 1016.63 1016.27 1015.53 1014.93 1014.12 1013.33 1013.10 1012.37 1011.31 1010.43 1009.60 1009.34 1009.55 1009.96 1010.64 1011.26 1011.98 1012.78 1013.63 1014.51 1015.48 1016.37 1017.19 1017.97 1018.67 1019.64 1020.57
1016.57 1016.52 1016.70 1016.74 1016.96 1017.31 1017.42 1017.33 1017.54 1017.81 1017.84 1017.89 1018.03 1018.03 1017.78 1017.84 1017.44 1016.95 1016.65 1016.34 1015.67 1014.99 1014.30 1013.33 1012.44 1011.89 1011.04 1010.20 1009.80 1009.97 1010.60 1011.23 1011.91 1012.57 1013.28 1013.94 1014.78 1015.77 1016.67 1017.44 1018.19 1019.04 1019.97 1020.86
1017.27 1017.21 1017.33 1017.45 1017.50 1017.78 1017.87 1017.95 1018.15 1018.19 1018.28 1018.42 1018.40 1018.41 1018.09 1018.09 1017.88 1017.50 1016.91 1016.46 1015.95 1015.34 1014.83 1014.17 1013.50 1012.52 1011.77 1011.17 1010.74 1010.69 1011.11 1011.68 1012.35 1012.94 1013.57 1014.27 1015.04 1015.90 1016.72 1017.61 1018.45 1019.23 1020.15 1021.08
1017.99 1017.93 1017.99 1018.05 1018.09 1018.29 1018.62 1018.75 1018.65 1018.73 1018.69 1018.75 1018.72 1018.57 1018.52 1018.38 1018.05 1017.73 1017.36 1016.95 1016.51 1016.09 1015.73 1015.08 1014.29 1013.38 1012.76 1012.19 1011.65 1011.43 1011.70 1012.20 1012.79 1013.40 1014.00 1014.63 1015.40 1016.13 1016.89 1017.76 1018.63 1019.49 1020.33 1021.16
1018.80 1018.73 1018.71 1018.77 1018.93 1019.16 1019.20 1019.14 1019.13 1019.21 1019.20 1019.08 1019.03 1018.90 1018.70 1018.68 1018.63 1018.30 1017.89 1017.46 1017.03 1016.73 1016.34 1015.61 1015.07 1014.48 1013.65 1013.11 1012.54 1012.24 1012.43 1012.85 1013.29 1013.81 1014.39 1015.02 1015.68 1016.35 1017.12 1017.92 1018.69 1019.46 1020.32 1021.14
1019.71 1019.61 1019.56 1019.51 1019.53 1019.54 1019.57 1019.56 1019.67 1019.59 1019.60 1019.60 1019.33 1019.30 1019.11 1018.85 1018.74 1018.46 1018.13 1017.94 1017.55 1017.19 1017.02 1016.52 1015.81 1015.00 1014.47 1014.00 1013.42 1012.93 1012.85 1013.27 1013.74 1014.20 1014.72 1015.31 1015.91 1016.54 1017.28 1018.06 1018.81 1019.53 1020.24 1021.03
1020.33 1020.09 1020.10 1020.05 1019.94 1019.91 1019.90 1019.90 1019.97 1019.93 1019.71 1019.76 1019.66 1019.59 1019.48 1019.18 1019.12 1018.89 1018.63 1018.44 1018.15 1017.74 1017.30 1016.82 1016.44 1016.01 1015.48 1014.92 1014.43 1013.98 1013.74 1013.90 1014.16 1014.61 1015.13 1015.71 1016.23 1016.80 1017.42 1018.07 1018.77 1019.44 1020.19 1020.97
Wind_Speed
10 12 12 16 18 23 12 16 9 21 13 19 12 14 6 8 5 6 6 6 6 5 5 3 4 5 7 7 8 12 12 13 13 13 12 14 8 4 6 10 9 8 11 11
22 16 14 19 18 19 18 15 9 15 17 14 15 8 5 5 4 4 6 6 6 5 5 4 3 5 6 9 8 10 11 12 13 14 11 10 10 8 7 9 11 11 12 14
20 8 7 8 11 9 5 6 5 5 8 5 2 1 1 1 2 6 7 7 7 7 6 5 4 5 6 7 7 8 11 11 13 14 14 13 6 8 7 10 12 12 13 15
9 2 5 7 8 10 10 6 6 6 7 5 1 2 1 2 4 7 8 8 9 7 7 5 1 3 5 7 9 7 11 9 11 14 15 17 3 8 9 9 12 13 14 16
4 3 7 8 7 2 3 4 3 1 3 3 2 1 3 3 4 6 7 8 8 8 7 1 2 5 5 5 7 8 10 11 12 12 15 15 8 3 8 9 12 12 16 18
2 3 6 3 1 2 2 3 3 1 3 1 2 3 5 6 6 8 8 8 8 8 2 2 5 5 6 6 7 9 10 12 12 13 13 15 5 6 8 11 11 11 14 15
9 7 7 7 8 2 1 6 3 3 0 1 2 5 6 7 7 6 5 7 6 5 5 6 6 6 7 6 7 9 11 12 12 13 14 15 3 7 11 12 13 13 14 14
3 3 5 4 1 3 5 5 3 1 3 2 3 5 4 6 7 7 7 7 8 6 6 7 7 6 8 7 10 10 11 11 12 12 9 7 8 7 14 14 14 15 16 13
4 6 7 11 8 11 6 8 5 3 4 4 4 4 6 5 7 7 7 7 6 6 8 8 7 6 13 13 11 11 11 11 10 11 10 5 9 9 11 13 12 12 13 12
6 5 8 18 19 17 14 9 6 4 4 2 2 4 5 6 6 6 6 7 5 7 11 12 9 12 14 13 10 10 10 10 8 8 6 4 7 8 10 10 11 11 12 13
12 15 14 12 6 10 12 3 3 2 1 1 0 4 4 5 6 7 7 6 7 10 12 14 18 16 15 14 11 10 9 6 7 6 4 5 7 8 9 8 14 12 12 14
9 8 7 10 9 7 4 1 2 1 1 1 2 5 4 6 6 6 7 9 10 12 15 19 18 19 18 15 12 10 10 7 6 4 6 6 10 10 15 15 17 20 21 16
16 13 10 16 11 7 2 2 1 2 1 3 5 3 4 4 6 10 7 10 12 13 21 20 20 18 15 10 11 12 11 8 5 9 8 9 10 12 13 16 20 20 24 24
9 10 14 12 7 6 4 3 2 3 3 4 3 2 4 4 6 7 8 11 12 18 21 18 17 15 6 7 14 13 10 12 9 8 9 9 11 12 12 12 13 11 18 22
17 14 12 9 3 3 3 1 3 4 4 5 2 3 5 7 7 8 8 11 13 18 19 19 18 17 5 9 11 11 9 9 9 8 9 12 11 12 12 13 12 12 12 17
6 7 7 6 5 4 4 5 4 5 4 0 2 5 5 6 6 8 7 11 14 17 20 20 20 18 4 8 9 9 10 18 12 10 10 10 10 12 12 13 14 12 11 12
5 7 5 6 4 5 7 4 4 4 1 3 2 4 6 6 6 8 8 10 14 15 18 18 18 15 5 8 9 8 8 10 17 10 10 10 11 11 12 12 12 11 11 11
7 8 6 6 6 6 5 7 4 2 2 1 3 5 6 6 6 8 10 10 13 14 15 18 19 16 11 7 8 7 8 9 9 10 10 10 10 11 11 12 12 12 11 11
7 6 5 6 7 6 6 4 2 4 4 2 6 5 5 5 5 5 9 11 14 14 18 18 25 18 13 7 8 6 8 9 9 10 10 16 11 10 11 11 12 12 11 10
3 5 4 2 4 5 5 1 4 5 2 3 5 6 6 6 6 6 7 7 9 7 12 17 17 15 14 8 7 6 8 10 10 10 10 10 11 11 10 13 12 11 10 9
4 7 6 7 6 6 5 3 5 5 2 5 6 5 5 5 5 5 7 8 12 14 14 16 11 11 8 9 4 6 8 9 10 10 10 11 12 11 11 11 10 10 10 9
2 4 4 5 6 5 4 5 6 5 5 6 5 5 5 6 6 6 4 5 7 16 9 9 10 18 13 16 4 6 9 10 9 9 10 10 10 11 11 11 10 10 9 9
4 3 3 4 6 5 5 6 5 6 6 5 5 5 5 3 3 5 7 10 7 12 8 9 17 21 22 10 6 6 8 9 9 9 9 10 10 11 11 10 10 10 10 9
5 5 5 5 6 6 7 4 5 5 4 4 4 4 4 4 4 4 5 9 13 12 8 11 15 20 18 9 8 5 7 8 8 7 8 11 9 9 10 10 10 9 9 10
6 5 5 6 6 3 4 3 4 4 5 4 5 5 5 3 3 4 4 5 11 9 7 13 18 14 10 10 10 6 6 7 8 8 8 9 9 9 9 9 9 10 9 8
5 4 3 4 2 2 3 3 2 3 3 3 3 4 4 4 4 4 4 7 6 9 6 6 7 8 8 10 10 10 4 7 8 7 7 8 8 9 9 10 9 9 9 9
4 6 3 3 3 3 2 3 3 3 3 2 2 3 4 4 5 5 6 5 6 6 6 7 7 8 6 7 9 10 6 4 6 6 6 7 7 8 9 9 9 8 8 9
Wind_Direction
255 266 275 266 276 282 262 251 239 279 266 274 269 268 252 256 231 239 279 282 278 287 293 307 338 325 338 342 345 332 334 333 325 319 316 316 309 253 160 168 160 151 134 127
288 286 273 276 268 263 266 270 244 262 277 275 268 271 251 282 252 294 314 308 303 286 305 324 310 309 327 346 342 331 334 330 321 321 323 304 312 309 153 141 138 135 132 127
274 292 301 280 244 245 260 237 215 262 259 304 6 113 38 88 315 283 290 296 302 277 263 230 255 308 321 323 329 333 325 327 324 327 327 322 235 293 145 134 128 126 127 118
274 327 253 241 275 250 243 263 280 289 293 287 22 118 168 252 281 308 307 301 309 285 271 242 290 295 297 323 322 331 319 321 325 329 327 326 216 243 110 127 124 125 118 115
252 200 295 294 298 283 192 291 315 117 350 6 38 162 302 286 310 291 290 280 277 271 259 182 319 285 309 317 317 314 313 326 326 325 322 313 279 148 100 108 121 120 116 114
180 247 251 250 316 351 75 284 260 202 15 29 40 18 265 300 305 296 312 309 301 311 337 2 301 323 306 305 330 312 325 324 319 318 315 306 302 106 91 90 88 109 110 115
244 253 286 265 301 344 82 242 301 329 126 160 191 204 250 295 316 318 321 313 316 334 312 286 294 297 288 286 311 310 319 317 311 309 309 307 108 107 102 99 95 98 100 104
278 243 264 300 301 338 259 296 286 357 215 241 262 300 310 324 332 330 319 319 301 293 293 290 286 274 273 280 292 317 306 307 302 302 304 299 84 106 112 107 105 101 100 96
194 257 296 315 282 278 265 256 248 212 227 238 291 327 323 319 321 310 303 299 298 285 282 279 269 281 302 300 298 301 290 291 293 303 300 182 120 102 104 113 114 114 109 108
317 257 273 297 294 287 288 244 232 221 198 249 332 328 305 327 313 305 297 295 285 292 294 284 285 303 289 283 285 281 274 272 280 291 289 157 119 121 116 120 116 120 118 112
271 279 284 280 277 289 291 219 160 157 191 88 16 315 301 309 305 296 297 300 301 303 301 299 307 298 288 281 271 257 250 241 264 280 124 129 103 118 123 130 136 135 130 131
254 255 244 263 288 308 333 285 229 169 49 347 268 304 306 315 298 300 309 320 316 316 311 308 303 292 283 268 246 222 221 221 230 167 119 113 102 87 70 104 120 122 125 125
252 272 272 277 280 264 246 258 283 40 310 289 312 320 319 302 303 330 324 324 324 320 313 307 300 290 283 245 200 183 190 198 181 127 124 118 112 107 103 77 83 105 114 120
251 272 279 262 246 249 211 215 297 348 330 314 303 340 324 315 315 324 332 327 329 314 313 319 320 328 346 107 136 156 171 180 128 123 126 119 118 117 114 114 110 102 110 122
257 252 244 260 242 201 171 214 277 312 317 338 17 337 1 340 331 327 328 331 324 315 327 336 342 354 59 107 130 147 157 129 121 121 119 119 118 118 118 115 111 112 117 117
261 263 251 248 246 258 192 222 262 283 310 322 359 356 346 339 324 327 331 339 339 333 337 345 351 349 74 117 120 119 115 123 122 119 119 120 123 122 121 121 121 122 122 127
237 272 233 224 195 219 221 230 235 260 194 94 8 359 358 349 334 346 340 351 337 338 343 347 348 352 25 101 108 113 121 122 128 119 124 124 125 125 125 125 125 127 130 141
224 246 234 215 185 209 223 233 228 179 141 126 61 28 1 4 347 345 337 343 350 346 342 344 352 2 17 93 107 112 119 125 125 124 124 123 123 124 125 125 125 125 127 131
239 226 232 220 197 184 184 212 213 93 108 76 59 27 348 356 342 346 339 356 360 348 345 344 349 3 12 54 107 123 126 122 123 124 121 122 119 121 125 130 130 131 131 128
77 61 52 109 131 139 154 137 96 98 77 76 63 33 5 358 348 1 354 350 349 335 332 345 352 1 1 7 103 115 121 126 125 123 126 125 124 126 124 126 132 133 132 130
192 130 112 87 76 85 99 115 111 99 61 60 58 32 8 5 356 349 6 356 353 353 354 342 352 2 356 360 70 119 121 122 126 128 130 127 125 125 127 131 133 134 131 129
43 110 115 115 113 93 68 89 97 98 66 52 37 30 23 19 3 357 359 350 337 354 345 348 359 7 7 13 29 107 119 124 126 129 129 131 131 132 134 135 134 134 131 132
33 96 108 115 103 95 72 67 73 78 60 47 28 34 24 31 4 4 0 352 356 358 354 355 359 8 14 13 11 101 115 118 125 130 132 133 137 138 138 137 136 136 135 135
50 63 71 82 85 74 72 32 58 59 48 44 34 39 41 20 359 1 342 346 359 6 358 0 9 4 20 11 8 81 111 118 121 125 128 133 135 136 135 134 135 136 132 132
46 52 62 68 74 64 65 38 42 41 42 22 29 28 28 34 46 326 360 352 357 9 356 359 3 6 19 12 13 32 112 121 128 129 132 135 136 135 133 135 139 141 139 138
30 37 40 53 61 48 40 35 27 3 35 12 16 24 16 17 14 9 9 9 1 0 359 355 356 4 14 14 14 14 51 116 121 121 130 131 134 134 134 136 139 141 141 141
22 32 23 18 12 18 29 41 37 356 5 37 6 13 31 14 21 21 10 9 4 358 356 3 6 1 14 13 15 15 12 92 125 125 123 133 135 138 140 141 141 140 141 144